This demonstration page uses our WeatherBlox Daily Observations layout. Learn more.

Left ArrowRight Arrow

Hourly Observations for March 14, 2015

Temp ( °F °C ) Dew Point ( °F °C ) Humidity (%) Winds ( mph kmh ) Pressure ( in mb ) Visibility ( mi km ) Precip ( " mm )
12:53 am 00:53 undefined 31 -0.6 23 -5 72 72 N N/A 30.06 1018 10 16 N/A
1:53 am 01:53 undefined 30 -1.1 23 -5 75 75 N N/A 30.03 1017 10 16 N/A
2:53 am 02:53 undefined 29 -1.7 25 -3.9 85 85 ENE 5 7 30.01 1016 10 16 N/A
3:53 am 03:53 undefined 28 -2.2 25 -3.9 88 88 ESE 6 9 29.99 1016 10 16 N/A
4:53 am 04:53 undefined 26 -3.3 23 -5 88 88 NNE 3 6 29.98 1015 10 16 N/A
5:53 am 05:53 undefined 29 -1.7 25 -3.9 85 85 N N/A 29.95 1014 10 16 N/A
6:53 am 06:53 undefined 29 -1.7 26 -3.3 89 89 N N/A 29.94 1014 10 16 N/A
7:53 am 07:53 undefined 30 -1.1 26 -3.3 85 85 ESE 7 11 29.91 1013 10 16 N/A
8:53 am 08:53 undefined 34 1.1 28 -2.2 79 79 ENE 5 7 29.87 1011 10 16 N/A
9:53 am 09:53 undefined 40 4.4 30 -1.1 68 68 E 3 6 29.83 1010 10 16 N/A
10:53 am 10:53 undefined 50 10 29 -1.7 44 44 WSW 7 11 29.76 1008 10 16 N/A
11:53 am 11:53 undefined 63 17.2 21 -6.1 20 20 SW 24 39 29.70 1006 10 16 N/A
12:53 pm 12:53 undefined 69 20.6 24 -4.4 18 18 SW 29 46 29.68 1005 10 16 N/A
1:53 pm 13:53 undefined 71 21.7 25 -3.9 18 18 SW 29 46 29.64 1004 10 16 N/A
2:53 pm 14:53 undefined 74 23.3 27 -2.8 17 17 WSW 32 52 29.61 1003 10 16 N/A
3:53 pm 15:53 undefined 72 22.2 31 -0.6 22 22 SW 30 48 29.61 1003 10 16 N/A
4:53 pm 16:53 undefined 71 21.7 33 0.6 25 25 SW 26 43 29.61 1003 10 16 N/A
5:53 pm 17:53 undefined 67 19.4 35 1.7 31 31 WSW 20 31 29.63 1003 10 16 N/A
6:53 pm 18:53 undefined 65 18.3 37 2.8 36 36 WSW 25 41 29.64 1004 10 16 N/A
7:53 pm 19:53 undefined 62 16.7 38 3.3 41 41 WSW 28 44 29.65 1004 10 16 N/A
8:53 pm 20:53 undefined 58 14.4 37 2.8 46 46 WSW 21 33 29.67 1005 10 16 N/A
9:53 pm 21:53 undefined 56 13.3 38 3.3 51 51 SSW 20 31 29.67 1005 10 16 N/A
10:53 pm 22:53 undefined 56 13.3 39 3.9 53 53 WSW 24 39 29.65 1004 10 16 N/A
11:53 pm 23:53 undefined 55 12.8 39 3.9 55 55 WSW 22 35 29.65 1004 10 16 N/A

Powered by AerisWeather